Location: Abyssinia Baptist Church
(32.7840°N, 96.7578°W)
Time: 19:53:57
(UTC+00:00)

SL-4 R/B - Pass Details

Date: 11 July 2022
Orbit: 425 x 653 km, 51.6° (Epoch: 08 August)

Event Time Altitude Azimuth Distance (km) Brightness Sun altitude
Rises 08:52:49 0° 331° (NNW) 2,528 5.7 -25.7°
Reaches altitude 10° 08:56:03 10° 2° (N) 1,701 5.2 -25.3°
Maximum altitude 08:57:46 13° 29° (NNE) 1,575 5.3 -25.1°
Drops below altitude 10° 08:59:32 10° 55° (NE) 1,761 5.5 -24.9°
Sets 09:03:01 0° 85° (E) 2,714 6.2 -24.4°
